GW2922 Weather Reports


time (UTC)temp
F
wind
direction
speed
knots
gust
knots
rain 1hr
in
rain 24hr
in
rain mn
in
humidity
%
barometer
mb
20260503213735 76 129 0.9 3.5 0.00 0.00 0.00 36 1015.2
20260503213232 75 81 0.9 6.1 0.00 0.00 0.00 37 1015.2
20260503212729 75 8 1.7 6.1 0.00 0.00 0.00 37 1015.2
20260503212226 75 21 1.7 7.8 0.00 0.00 0.00 39 1015.2
20260503211724 74 312 1.7 3.5 0.00 0.00 0.00 38 1015.2
20260503211220 74 36 2.6 3.5 0.00 0.00 0.00 39 1015.5
20260503210715 75 65 0.9 3.5 0.00 0.00 0.00 39 1015.5
20260503210213 75 328 1.7 3.5 0.00 0.00 0.00 40 1015.5
20260503205708 76 58 1.7 3.5 0.00 0.00 0.00 38 1015.5
20260503205205 74 16 2.6 7.0 0.00 0.00 0.00 39 1015.5
20260503204701 74 84 0.9 5.2 0.00 0.00 0.00 39 1015.5
20260503204159 74 47 0.9 6.1 0.00 0.00 0.00 37 1015.5
20260503203656 75 33 3.5 6.1 0.00 0.00 0.00 37 1015.2
20260503203154 76 142 0.9 3.5 0.00 0.00 0.00 36 1015.5
20260503202650 75 129 0.0 2.6 0.00 0.00 0.00 36 1015.5
20260503202148 73 194 4.3 6.1 0.00 0.00 0.00 38 1015.5
20260503201646 73 62 3.5 6.1 0.00 0.00 0.00 37 1015.2
20260503201143 74 7 2.6 3.5 0.00 0.00 0.00 37 1015.2
20260503200639 73 86 0.9 5.2 0.00 0.00 0.00 37 1015.5
20260503200136 73 14 1.7 3.5 0.00 0.00 0.00 39 1015.5
20260503195633 73 49 1.7 3.5 0.00 0.00 0.00 40 1015.8
20260503195130 74 354 0.9 2.6 0.00 0.00 0.00 40 1015.8
20260503194627 72 55 0.9 2.6 0.00 0.00 0.00 40 1015.8
20260503194122 72 115 3.5 5.2 0.00 0.00 0.00 42 1015.8
20260503193620 71 60 0.9 3.5 0.00 0.00 0.00 43 1015.8
20260503193115 71 319 3.5 3.5 0.00 0.00 0.00 44 1015.8
20260503192611 71 151 1.7 3.5 0.00 0.00 0.00 44 1015.8
20260503192106 71 30 1.7 3.5 0.00 0.00 0.00 44 1015.8
20260503191604 72 269 2.6 5.2 0.00 0.00 0.00 45 1016.2
20260503191100 72 82 0.9 2.6 0.00 0.00 0.00 45 1016.2
20260503190557 72 45 1.7 5.2 0.00 0.00 0.00 44 1016.2
20260503190054 73 184 0.9 2.6 0.00 0.00 0.00 43 1016.2
20260503185551 71 102 0.9 3.5 0.00 0.00 0.00 45 1015.8
20260503185050 70 61 1.7 3.5 0.00 0.00 0.00 47 1016.2
20260503184546 69 16 3.5 3.5 0.00 0.00 0.00 48 1015.8
20260503184043 69 314 4.3 6.1 0.00 0.00 0.00 47 1016.2
20260503183540 70 318 1.7 5.2 0.00 0.00 0.00 48 1016.2
20260503183037 69 39 1.7 3.5 0.00 0.00 0.00 48 1016.2
20260503182536 70 96 0.9 3.5 0.00 0.00 0.00 46 1016.2
20260503182033 69 78 0.9 2.6 0.00 0.00 0.00 48 1016.5
20260503181530 69 73 1.7 5.2 0.00 0.00 0.00 47 1016.5
20260503181026 70 51 1.7 5.2 0.00 0.00 0.00 46 1016.5
20260503180524 71 51 1.7 5.2 0.00 0.00 0.00 48 1016.5
20260503180021 69 10 1.7 1.7 0.00 0.00 0.00 51 1016.5
20260503175518 67 4 0.9 1.7 0.00 0.00 0.00 54 1016.5
20260503175015 66 321 4.3 6.1 0.00 0.00 0.00 56 1016.5
20260503174513 65 352 1.7 5.2 0.00 0.00 0.00 57 1016.9
20260503174008 65 59 2.6 5.2 0.00 0.00 0.00 58 1016.5
20260503173504 65 251 1.7 3.5 0.00 0.00 0.00 58 1016.9
20260503173000 65 61 1.7 5.2 0.00 0.00 0.00 59 1016.9
20260503172458 65 11 2.6 3.5 0.00 0.00 0.00 59 1016.9
20260503171955 63 95 0.9 3.5 0.00 0.00 0.00 62 1016.9
20260503171451 63 53 0.9 5.2 0.00 0.00 0.00 62 1016.9
20260503170949 63 302 2.6 7.8 0.00 0.00 0.00 62 1016.9
20260503170445 64 307 0.9 5.2 0.00 0.00 0.00 60 1016.9
20260503150837 61 330 2.6 6.1 0.00 0.00 0.00 65 1017.2
20260503150333 61 343 1.7 3.5 0.00 0.00 0.00 65 1017.2
20260503140257 61 39 1.7 3.5 0.00 0.00 0.00 64 1016.9
20260503131227 59 357 0.9 1.7 0.00 0.00 0.00 66 1016.9
20260503130725 59 107 0.9 1.7 0.00 0.00 0.00 66 1016.9
20260503130222 59 108 0.0 1.7 0.00 0.00 0.00 65 1016.9
20260503120148 61 58 0.0 1.7 0.00 0.00 0.00 59 1016.9
20260503110615 61 110 0.0 2.6 0.00 0.00 0.00 56 1016.9
20260503110113 61 87 0.9 0.9 0.00 0.00 0.00 56 1016.9
20260503090501 53 107 0.0 0.0 0.00 0.00 0.00 77 1017.2
20260503081422 54 132 0.0 0.9 0.00 0.00 0.00 75 1016.9
20260503080919 54 147 0.9 0.9 0.00 0.00 0.00 75 1016.9
20260503080410 55 113 0.0 0.0 0.00 0.00 0.00 74 1016.9
20260503072847 56 123 0.0 0.9 0.00 0.00 0.00 71 1016.9
20260503072343 57 154 0.0 0.9 0.00 0.00 0.00 71 1016.9
20260503071840 57 145 0.0 0.0 0.00 0.00 0.00 69 1017.2
20260503071337 57 145 0.0 0.9 0.00 0.00 0.00 67 1016.9
20260503070833 58 145 0.0 0.9 0.00 0.00 0.00 66 1016.9
20260503070332 58 145 0.0 0.0 0.00 0.00 0.00 65 1016.9
20260503060256 64 110 0.0 1.7 0.00 0.00 0.00 48 1016.9
20260503054743 64 190 0.0 0.9 0.00 0.00 0.00 51 1017.2
20260503054240 64 163 0.9 1.7 0.00 0.00 0.00 48 1017.2
20260503053738 64 109 0.0 1.7 0.00 0.00 0.00 48 1016.9
20260503053237 64 55 0.9 0.9 0.00 0.00 0.00 50 1016.9
20260503052732 64 126 0.0 2.6 0.00 0.00 0.00 50 1017.2
20260503052230 64 8 0.9 2.6 0.00 0.00 0.00 50 1017.2
20260503051724 64 65 0.9 0.9 0.00 0.00 0.00 51 1017.2
20260503051222 64 79 0.9 1.7 0.00 0.00 0.00 52 1017.2
20260503050719 64 83 0.9 0.9 0.00 0.00 0.00 51 1017.2
20260503050215 64 75 0.9 0.9 0.00 0.00 0.00 50 1016.9
20260503045713 64 66 0.9 1.7 0.00 0.00 0.00 50 1017.2
20260503045210 65 92 0.0 0.9 0.00 0.00 0.00 50 1016.9
20260503044706 64 81 0.0 5.2 0.00 0.00 0.00 50 1016.9
20260503044204 64 85 0.9 0.9 0.00 0.00 0.00 50 1016.9
20260503043700 64 103 0.9 0.9 0.00 0.00 0.00 50 1016.9
20260503043158 64 99 0.9 2.6 0.00 0.00 0.00 50 1016.9
20260503042654 64 83 0.9 1.7 0.00 0.00 0.00 51 1016.9
20260503042151 65 104 0.9 1.7 0.00 0.00 0.00 50 1016.9
20260503041647 64 340 1.7 1.7 0.00 0.00 0.00 50 1016.9
20260503041145 65 196 0.0 0.9 0.00 0.00 0.00 50 1016.9
20260503040642 65 61 1.7 1.7 0.00 0.00 0.00 51 1017.2
20260503040140 64 95 0.9 1.7 0.00 0.00 0.00 50 1016.9
20260503035636 64 6 0.9 2.6 0.00 0.00 0.00 52 1016.9
20260503035134 64 50 0.9 1.7 0.00 0.00 0.00 52 1016.9
20260503034631 64 78 0.9 1.7 0.00 0.00 0.00 52 1016.5
20260503034128 64 69 1.7 1.7 0.00 0.00 0.00 53 1016.5
20260503033625 65 151 0.0 1.7 0.00 0.00 0.00 53 1016.5
20260503033122 65 212 1.7 1.7 0.00 0.00 0.00 51 1016.5
20260503032621 65 91 0.0 1.7 0.00 0.00 0.00 52 1016.5
20260503032119 65 83 0.9 0.9 0.00 0.00 0.00 52 1016.5
20260503031616 66 92 0.0 0.9 0.00 0.00 0.00 52 1016.5
20260503031113 66 92 0.9 0.9 0.00 0.00 0.00 51 1016.5
20260503030609 67 66 0.9 1.7 0.00 0.00 0.00 49 1016.5
20260503030106 67 73 0.9 1.7 0.00 0.00 0.00 51 1016.5
20260503025603 67 92 0.0 0.9 0.00 0.00 0.00 51 1016.5
20260503025101 67 101 0.0 1.7 0.00 0.00 0.00 48 1016.2
20260503024557 67 67 0.9 0.9 0.00 0.00 0.00 49 1016.2
20260503024054 68 51 1.7 2.6 0.00 0.00 0.00 48 1016.2
20260503023551 68 77 0.9 0.9 0.00 0.00 0.00 48 1016.2
20260503023048 68 51 0.9 1.7 0.00 0.00 0.00 47 1016.2
20260503022544 68 110 0.9 1.7 0.00 0.00 0.00 46 1016.5
20260503022039 69 97 0.9 0.9 0.00 0.00 0.00 49 1016.2
20260503021536 69 124 0.0 2.6 0.00 0.00 0.00 47 1016.5
20260503021033 69 108 0.0 1.7 0.00 0.00 0.00 47 1016.2
20260503020530 70 53 0.9 1.7 0.00 0.00 0.00 46 1016.2
20260503020027 70 117 0.0 0.9 0.00 0.00 0.00 46 1016.5
20260503015524 72 127 0.0 1.7 0.00 0.00 0.00 44 1016.5
20260503015021 72 194 0.9 0.9 0.00 0.00 0.00 43 1016.5
20260503014516 73 116 0.9 1.7 0.00 0.00 0.00 40 1016.5
20260503014015 72 164 0.9 1.7 0.00 0.00 0.00 41 1016.5
20260503013512 72 336 2.6 7.0 0.00 0.00 0.00 40 1016.5
20260503013009 72 218 0.0 5.2 0.00 0.00 0.00 41 1016.5
20260503012507 73 114 1.7 3.5 0.00 0.00 0.00 40 1016.5
20260503012003 73 90 1.7 2.6 0.00 0.00 0.00 40 1016.9
20260503011500 73 0 1.7 2.6 0.00 0.00 0.00 39 1016.9
20260503010957 74 99 0.9 2.6 0.00 0.00 0.00 38 1016.9
20260503010453 75 58 0.0 1.7 0.00 0.00 0.00 39 1016.9
20260503005950 74 1 1.7 3.5 0.00 0.00 0.00 39 1016.9
20260503005447 73 274 1.7 6.1 0.00 0.00 0.00 40 1016.9
20260503004944 74 134 1.7 6.1 0.00 0.00 0.00 40 1016.9
20260503004441 74 98 1.7 3.5 0.00 0.00 0.00 41 1016.9
20260503003939 73 258 0.9 3.5 0.00 0.00 0.00 41 1016.9
20260503003435 73 13 1.7 6.1 0.00 0.00 0.00 42 1016.9
20260503002932 74 119 1.7 2.6 0.00 0.00 0.00 41 1016.9
20260503002429 74 109 0.9 1.7 0.00 0.00 0.00 41 1016.9
20260503001926 74 288 2.6 3.5 0.00 0.00 0.00 39 1016.9
20260503001422 74 6 2.6 6.1 0.00 0.00 0.00 41 1016.9
20260503000920 74 353 2.6 5.2 0.00 0.00 0.00 41 1016.9
20260503000417 73 307 1.7 3.5 0.00 0.00 0.00 41 1016.9
20260502235914 72 87 0.9 7.0 0.00 0.00 0.00 42 1016.9
20260502235411 72 290 4.3 7.0 0.00 0.00 0.00 43 1017.2
20260502234908 72 9 2.6 7.0 0.00 0.00 0.00 42 1016.9
20260502234405 73 35 1.7 3.5 0.00 0.00 0.00 42 1017.2
20260502233902 75 125 0.0 2.6 0.00 0.00 0.00 39 1017.2
20260502233357 75 76 0.9 3.5 0.00 0.00 0.00 40 1017.2
20260502232855 75 128 0.0 1.7 0.00 0.00 0.00 41 1017.2
20260502232351 74 83 0.9 3.5 0.00 0.00 0.00 41 1017.2
20260502231848 74 119 1.7 2.6 0.00 0.00 0.00 42 1017.2
20260502231346 74 237 0.9 5.2 0.00 0.00 0.00 41 1017.5
20260502230844 74 60 0.9 3.5 0.00 0.00 0.00 44 1017.5
20260502230342 74 64 0.9 2.6 0.00 0.00 0.00 43 1017.5
20260502225838 72 262 1.7 3.5 0.00 0.00 0.00 45 1017.5
20260502225334 72 85 0.9 6.1 0.00 0.00 0.00 48 1017.9
20260502224832 71 166 0.9 5.2 0.00 0.00 0.00 48 1017.9
20260502224328 74 11 1.7 1.7 0.00 0.00 0.00 43 1017.9
20260502223825 73 185 0.9 3.5 0.00 0.00 0.00 45 1017.9
20260502223323 71 123 0.0 5.2 0.00 0.00 0.00 45 1017.9
20260502222821 71 79 1.7 3.5 0.00 0.00 0.00 45 1017.9
20260502222318 70 262 5.2 7.0 0.00 0.00 0.00 45 1018.2
20260502221814 71 302 4.3 5.2 0.00 0.00 0.00 44 1018.5
20260502221310 72 276 1.7 5.2 0.00 0.00 0.00 44 1018.5
20260502220807 70 77 1.7 2.6 0.00 0.00 0.00 48 1018.5
20260502220303 70 51 4.3 7.0 0.00 0.00 0.00 47 1018.5
20260502215800 71 274 1.7 7.0 0.00 0.00 0.00 46 1018.5
20260502215257 71 210 1.7 2.6 0.00 0.00 0.00 48 1018.5
20260502214754 70 6 5.2 6.1 0.00 0.00 0.00 47 1018.5
20260502214250 70 134 0.9 3.5 0.00 0.00 0.00 50 1018.5